Flag for Germany Weather past 2 weeks in Pirna, Saxony, Germany

Now
50 °F

Partly sunny.


Feels Like: 48 °F
Forecast: 26 / 58 °F
Wind: 5 mph from Northeast

Location: Dresden-Klotzsche


UV Index: 3 (Moderate)

Visibility: 31 mi


Pressure: 30.41 "Hg

Humidity: 40%

Dew point: 26 °F

Location of PirnaLocation

Historic Weather in Pirna

°F

Pirna temperature yesterday

Maximum temperature yesterday: 46 °F (at 1:00 PM)
Minimum temperature yesterday: 37 °F (at 5:00 AM)
Average temperature yesterday: 42 °F

Past Weeks' High & Low Weather Summary

 TemperatureHumidityPressure
High71 °F (Apr 3, 2:00 PM)98% (Apr 16, 7:00 AM)30.45 "Hg (Apr 16, 7:00 AM)
Low37 °F (Apr 11, 7:00 AM)32% (Apr 2, 4:00 PM)29.65 "Hg (Apr 3, 6:00 PM)
Average51 °F71%29.98 "Hg
* Reported Apr 1 3:00 PM — Apr 16 3:00 PM, Pirna, Weather by CustomWeather, © 2014

Note: Actual official high and low records may vary slightly from our data, if they occured in-between our weather recording intervals... More about our weather records

Advertising

Historic Weather Conditions — Data for Previous 24 hours

 ConditionsComfort  
Time TempWeatherWind HumidityBarometerVisibility
3:00 PM
Apr 16
50 °FPartly sunny.5 mph40%30.41 "Hg31 mi
2:00 PM50 °FScattered clouds.6 mph47%30.42 "Hg31 mi
1:00 PM46 °FPartly sunny.3 mph60%30.42 "Hg25 mi
12:00 PM45 °FScattered clouds.3 mph69%30.44 "Hg19 mi
11:00 AM41 °FPartly sunny.3 mph81%30.45 "Hg11 mi
10:00 AM38 °FLow clouds.3 mph92%30.44 "Hg9 mi
9:00 AM38 °FLow clouds.3 mph95%30.42 "Hg6 mi
8:00 AM38 °FLow clouds.2 mph98%30.40 "Hg6 mi
7:00 AM37 °FFog.2 mph98%30.38 "Hg4 mi
6:00 AM37 °FLow clouds.5 mph97%30.37 "Hg7 mi
5:00 AM37 °FOvercast.3 mph97%30.34 "Hg19 mi
4:00 AM38 °FPassing clouds.3 mph95%30.32 "Hg22 mi
3:00 AM39 °FOvercast.3 mph95%30.31 "Hg22 mi
12:00 AM39 °FLow clouds.3 mph93%30.26 "Hg22 mi
10:00 PM
Apr 15
40 °FLight rain. Overcast.5 mph94%30.22 "Hg17 mi
9:00 PM39 °FOvercast.2 mph93%30.21 "Hg19 mi
8:00 PM39 °FOvercast.2 mph94%30.19 "Hg10 mi
7:00 PM45 °FOvercast.8 mph70%30.15 "Hg16 mi
6:00 PM46 °FPartly sunny.7 mph64%30.12 "Hg22 mi
4:00 PM46 °FPartly sunny.8 mph65%30.12 "Hg19 mi
Weather by CustomWeather, © 2014

See weather overview